AAL8789 KPHX-KLAS

Flight info

Callsign AAL8789
Flight time 0h 42m
Altitude 28000
Route ZEPER2 RRSTA ELLDA RKSTR4
Aircraft B738/M-SDE2E3FGHIRWXY/LB1

Departure

Time 2026-05-05 12:18
Airport Phoenix Sky Harbor International Airport (KPHX)

Arrival

Time 2026-05-05 13:01
Airport Harry Reid International Airport (KLAS)
Time Latitude Longitude Altitude Speed Heading
2026-05-05 11:53 33.43816 -111.99983 1130 ft 0 kts 127°
2026-05-05 12:07 33.43821 -111.99991 1130 ft 2 kts 127°
2026-05-05 12:08 33.43830 -112.00006 1130 ft 2 kts 111°
2026-05-05 12:08 33.43829 -112.00025 1135 ft 2 kts 44°
2026-05-05 12:08 33.43815 -112.00034 1133 ft 2 kts
2026-05-05 12:08 33.43814 -112.00034 1133 ft 0 kts
2026-05-05 12:11 33.43835 -112.00032 1135 ft 7 kts
2026-05-05 12:11 33.43897 -112.00061 1132 ft 12 kts 299°
2026-05-05 12:11 33.43904 -112.00165 1130 ft 13 kts 270°
2026-05-05 12:12 33.43903 -112.00267 1130 ft 12 kts 260°
2026-05-05 12:12 33.43829 -112.00303 1133 ft 13 kts 179°
2026-05-05 12:12 33.43729 -112.00304 1132 ft 16 kts 188°
2026-05-05 12:12 33.43632 -112.00373 1133 ft 16 kts 201°
2026-05-05 12:13 33.43523 -112.00382 1132 ft 16 kts 180°
2026-05-05 12:13 33.43416 -112.00383 1132 ft 15 kts 180°
2026-05-05 12:13 33.43313 -112.00383 1131 ft 14 kts 180°
2026-05-05 12:13 33.43224 -112.00413 1132 ft 14 kts 240°
2026-05-05 12:14 33.43214 -112.00539 1131 ft 17 kts 270°
2026-05-05 12:14 33.43215 -112.00692 1135 ft 20 kts 270°
2026-05-05 12:14 33.43215 -112.00866 1134 ft 21 kts 270°
2026-05-05 12:14 33.43216 -112.01039 1133 ft 21 kts 270°
2026-05-05 12:15 33.43215 -112.01207 1133 ft 20 kts 269°
2026-05-05 12:15 33.43214 -112.01370 1121 ft 19 kts 271°
2026-05-05 12:15 33.43215 -112.01527 1121 ft 19 kts 270°
2026-05-05 12:15 33.43215 -112.01680 1121 ft 18 kts 269°
2026-05-05 12:16 33.43215 -112.01827 1125 ft 17 kts 271°
2026-05-05 12:16 33.43215 -112.01969 1128 ft 17 kts 269°
2026-05-05 12:16 33.43215 -112.02113 1130 ft 19 kts 270°
2026-05-05 12:16 33.43215 -112.02287 1121 ft 22 kts 270°
2026-05-05 12:17 33.43216 -112.02466 1120 ft 21 kts 269°
2026-05-05 12:17 33.43216 -112.02621 1124 ft 15 kts 270°
2026-05-05 12:17 33.43161 -112.02699 1118 ft 14 kts 178°
2026-05-05 12:17 33.43106 -112.02613 1123 ft 15 kts 95°
2026-05-05 12:18 33.43106 -112.02395 1125 ft 57 kts 90°
2026-05-05 12:18 33.43106 -112.01584 1127 ft 135 kts 90°
2026-05-05 12:18 33.43115 -112.00215 1424 ft 172 kts 92°
2026-05-05 12:18 33.43156 -111.98812 2375 ft 172 kts 89°
2026-05-05 12:19 33.43226 -111.97325 3054 ft 191 kts 88°
2026-05-05 12:19 33.43317 -111.95613 3500 ft 215 kts 88°
2026-05-05 12:19 33.43412 -111.93739 3909 ft 237 kts 88°
2026-05-05 12:19 33.43504 -111.91676 4331 ft 254 kts 88°
2026-05-05 12:20 33.43594 -111.89472 4987 ft 268 kts 89°
2026-05-05 12:20 33.43860 -111.87295 5982 ft 268 kts 70°
2026-05-05 12:20 33.44973 -111.85497 7019 ft 272 kts 37°
2026-05-05 12:20 33.46720 -111.84631 7691 ft 285 kts
2026-05-05 12:21 33.48748 -111.84496 8474 ft 292 kts 359°
2026-05-05 12:21 33.50804 -111.84455 8967 ft 306 kts 360°
2026-05-05 12:21 33.52947 -111.84368 9604 ft 311 kts
2026-05-05 12:21 33.55129 -111.84250 10449 ft 315 kts
2026-05-05 12:22 33.57360 -111.84132 11024 ft 330 kts
2026-05-05 12:22 33.59754 -111.83993 11234 ft 357 kts
2026-05-05 12:22 33.62293 -111.83839 11773 ft 370 kts
2026-05-05 12:22 33.64903 -111.83687 12378 ft 381 kts 359°
2026-05-05 12:23 33.67554 -111.83855 13077 ft 382 kts 349°
2026-05-05 12:23 33.70191 -111.84341 13858 ft 384 kts 346°
2026-05-05 12:23 33.72707 -111.85318 14474 ft 379 kts 325°
2026-05-05 12:23 33.74754 -111.87254 15183 ft 372 kts 307°
2026-05-05 12:24 33.76351 -111.89691 15824 ft 372 kts 300°
2026-05-05 12:24 33.77870 -111.92219 16525 ft 374 kts 299°
2026-05-05 12:24 33.79388 -111.94779 17233 ft 377 kts 299°
2026-05-05 12:24 33.80921 -111.97355 17929 ft 380 kts 299°
2026-05-05 12:25 33.82477 -111.99950 18562 ft 383 kts 299°
2026-05-05 12:25 33.84074 -112.02543 19135 ft 387 kts 299°
2026-05-05 12:25 33.85656 -112.05163 19754 ft 388 kts 298°
2026-05-05 12:25 33.87248 -112.07800 20309 ft 391 kts 298°
2026-05-05 12:26 33.88853 -112.10456 20854 ft 395 kts 298°
2026-05-05 12:26 33.90494 -112.13127 21502 ft 396 kts 298°
2026-05-05 12:26 33.92114 -112.15807 22048 ft 398 kts 297°
2026-05-05 12:26 33.93745 -112.18517 22553 ft 401 kts 297°
2026-05-05 12:27 33.95390 -112.21246 23069 ft 404 kts 297°
2026-05-05 12:27 33.97051 -112.23995 23565 ft 407 kts 297°
2026-05-05 12:27 33.98720 -112.26753 23984 ft 408 kts 297°
2026-05-05 12:27 34.00402 -112.29521 24406 ft 410 kts 296°
2026-05-05 12:28 34.02085 -112.32308 24819 ft 413 kts 296°
2026-05-05 12:28 34.03995 -112.34962 25194 ft 429 kts 307°
2026-05-05 12:28 34.05509 -112.36527 25457 ft 435 kts 310°
2026-05-05 12:28 34.07878 -112.38828 25828 ft 439 kts 310°
2026-05-05 12:29 34.10267 -112.41135 26204 ft 443 kts 311°
2026-05-05 12:29 34.12679 -112.43455 26583 ft 444 kts 310°
2026-05-05 12:29 34.15077 -112.45826 26938 ft 446 kts 309°
2026-05-05 12:29 34.17472 -112.48221 27300 ft 447 kts 308°
2026-05-05 12:30 34.19870 -112.50624 27715 ft 448 kts 308°
2026-05-05 12:30 34.22250 -112.53056 27853 ft 451 kts 307°
2026-05-05 12:30 34.24665 -112.55531 27873 ft 459 kts 308°
2026-05-05 12:30 34.27136 -112.58030 27873 ft 466 kts 308°
2026-05-05 12:31 34.29632 -112.60555 27863 ft 469 kts 308°
2026-05-05 12:31 34.32113 -112.63045 27859 ft 468 kts 308°
2026-05-05 12:31 34.34641 -112.65581 27878 ft 465 kts 308°
2026-05-05 12:31 34.37125 -112.68084 27873 ft 465 kts 308°
2026-05-05 12:32 34.39579 -112.70571 27865 ft 466 kts 308°
2026-05-05 12:32 34.42063 -112.73093 27861 ft 466 kts 308°
2026-05-05 12:32 34.44554 -112.75625 27870 ft 467 kts 308°
2026-05-05 12:32 34.47041 -112.78155 27865 ft 468 kts 308°
2026-05-05 12:33 34.49536 -112.80694 27872 ft 468 kts 308°
2026-05-05 12:33 34.51999 -112.83258 27869 ft 466 kts 307°
2026-05-05 12:33 34.54486 -112.85804 27890 ft 469 kts 309°
2026-05-05 12:33 34.56996 -112.88321 27873 ft 469 kts 309°
2026-05-05 12:34 34.59503 -112.90854 27839 ft 468 kts 308°
2026-05-05 12:34 34.61972 -112.93407 27860 ft 464 kts 307°
2026-05-05 12:34 34.64427 -112.95959 27871 ft 465 kts 308°
2026-05-05 12:34 34.66905 -112.98490 27844 ft 466 kts 309°
2026-05-05 12:35 34.69382 -113.01018 27852 ft 465 kts 308°
2026-05-05 12:35 34.71858 -113.03554 27860 ft 465 kts 308°
2026-05-05 12:35 34.74326 -113.06096 27869 ft 465 kts 309°
2026-05-05 12:35 34.76740 -113.08693 27858 ft 460 kts 306°
2026-05-05 12:36 34.78983 -113.11445 27864 ft 456 kts 303°
2026-05-05 12:36 34.81150 -113.14267 27856 ft 455 kts 302°
2026-05-05 12:36 34.83280 -113.17113 27852 ft 454 kts 302°
2026-05-05 12:36 34.85434 -113.19936 27847 ft 456 kts 303°
2026-05-05 12:37 34.87625 -113.22741 27842 ft 457 kts 303°
2026-05-05 12:37 34.89830 -113.25534 27842 ft 457 kts 303°
2026-05-05 12:37 34.92036 -113.28323 27854 ft 457 kts 304°
2026-05-05 12:37 34.94243 -113.31120 27848 ft 458 kts 304°
2026-05-05 12:38 34.96448 -113.33921 27844 ft 458 kts 304°
2026-05-05 12:38 34.98654 -113.36727 27840 ft 458 kts 304°
2026-05-05 12:38 35.00960 -113.39442 27841 ft 465 kts 309°
2026-05-05 12:38 35.03449 -113.41988 27835 ft 469 kts 311°
2026-05-05 12:39 35.06005 -113.44467 27858 ft 470 kts 312°
2026-05-05 12:39 35.08588 -113.46953 27840 ft 470 kts 312°
2026-05-05 12:39 35.11121 -113.49420 27747 ft 462 kts 312°
2026-05-05 12:39 35.13608 -113.51877 27259 ft 458 kts 312°
2026-05-05 12:40 35.16055 -113.54328 26656 ft 452 kts 313°
2026-05-05 12:40 35.18459 -113.56754 26064 ft 445 kts 313°
2026-05-05 12:40 35.20826 -113.59150 25477 ft 439 kts 313°
2026-05-05 12:40 35.23167 -113.61525 24910 ft 436 kts 314°
2026-05-05 12:41 35.25492 -113.63883 24349 ft 432 kts 315°
2026-05-05 12:41 35.27800 -113.66221 23805 ft 429 kts 315°
2026-05-05 12:41 35.30092 -113.68543 23214 ft 426 kts 316°
2026-05-05 12:41 35.32369 -113.70851 22575 ft 424 kts 316°
2026-05-05 12:42 35.34638 -113.73152 21939 ft 421 kts 316°
2026-05-05 12:42 35.36884 -113.75434 21333 ft 418 kts 316°
2026-05-05 12:42 35.39087 -113.77674 20732 ft 415 kts 316°
2026-05-05 12:42 35.41297 -113.79922 20124 ft 411 kts 316°
2026-05-05 12:43 35.43482 -113.82146 19637 ft 404 kts 317°
2026-05-05 12:43 35.45619 -113.84323 19200 ft 397 kts 317°
2026-05-05 12:43 35.47728 -113.86473 18757 ft 391 kts 317°
2026-05-05 12:43 35.49800 -113.88588 18322 ft 385 kts 317°
2026-05-05 12:44 35.51873 -113.90706 17840 ft 380 kts 317°
2026-05-05 12:44 35.53866 -113.92744 17359 ft 375 kts 317°
2026-05-05 12:44 35.55862 -113.94786 16873 ft 371 kts 317°
2026-05-05 12:44 35.57829 -113.96799 16401 ft 367 kts 317°
2026-05-05 12:45 35.59781 -113.98798 15998 ft 362 kts 317°
2026-05-05 12:45 35.61711 -114.00777 15928 ft 362 kts 317°
2026-05-05 12:45 35.63631 -114.02747 15906 ft 359 kts 317°
2026-05-05 12:45 35.65558 -114.04726 15917 ft 368 kts 317°
2026-05-05 12:46 35.67567 -114.06793 15917 ft 383 kts 317°
2026-05-05 12:46 35.69629 -114.08912 15910 ft 385 kts 318°
2026-05-05 12:46 35.71680 -114.11017 15896 ft 383 kts 318°
2026-05-05 12:46 35.73718 -114.13112 15892 ft 382 kts 318°
2026-05-05 12:47 35.75707 -114.15268 15884 ft 378 kts 310°
2026-05-05 12:47 35.77128 -114.17885 15694 ft 362 kts 295°
2026-05-05 12:47 35.78275 -114.20617 15346 ft 357 kts 295°
2026-05-05 12:47 35.79418 -114.23308 15009 ft 352 kts 295°
2026-05-05 12:48 35.80563 -114.25957 14652 ft 348 kts 296°
2026-05-05 12:48 35.81710 -114.28571 14306 ft 346 kts 297°
2026-05-05 12:48 35.82856 -114.31167 13988 ft 344 kts 297°
2026-05-05 12:48 35.84007 -114.33743 13661 ft 343 kts 298°
2026-05-05 12:49 35.85351 -114.36150 13280 ft 341 kts 305°
2026-05-05 12:49 35.86821 -114.38429 12913 ft 336 kts 307°
2026-05-05 12:49 35.88283 -114.40654 12546 ft 332 kts 308°
2026-05-05 12:49 35.89715 -114.42863 12199 ft 328 kts 307°
2026-05-05 12:50 35.91114 -114.45060 11870 ft 324 kts 307°
2026-05-05 12:50 35.92484 -114.47242 11547 ft 320 kts 306°
2026-05-05 12:50 35.93838 -114.49412 11228 ft 317 kts 306°
2026-05-05 12:50 35.95175 -114.51560 10903 ft 314 kts 306°
2026-05-05 12:51 35.96496 -114.53690 10603 ft 312 kts 306°
2026-05-05 12:51 35.97804 -114.55813 10284 ft 309 kts 306°
2026-05-05 12:51 35.99104 -114.57925 9986 ft 307 kts 306°
2026-05-05 12:51 36.00390 -114.60015 9674 ft 305 kts 306°
2026-05-05 12:52 36.01668 -114.62093 9331 ft 301 kts 306°
2026-05-05 12:52 36.02912 -114.64113 8980 ft 292 kts 306°
2026-05-05 12:52 36.04109 -114.66092 8688 ft 283 kts 302°
2026-05-05 12:52 36.05127 -114.68121 8363 ft 273 kts 299°
2026-05-05 12:53 36.06072 -114.70094 8039 ft 262 kts 299°
2026-05-05 12:53 36.06971 -114.71995 7727 ft 250 kts 295°
2026-05-05 12:53 36.07361 -114.74004 7436 ft 235 kts 269°
2026-05-05 12:53 36.07358 -114.75975 7177 ft 225 kts 267°
2026-05-05 12:54 36.07347 -114.79603 6735 ft 202 kts 266°
2026-05-05 12:54 36.07345 -114.81318 6501 ft 198 kts 266°
2026-05-05 12:54 36.07344 -114.83036 6282 ft 198 kts 266°
2026-05-05 12:55 36.07343 -114.84707 6062 ft 197 kts 267°
2026-05-05 12:55 36.07346 -114.86400 5824 ft 196 kts 266°
2026-05-05 12:55 36.07345 -114.88072 5571 ft 190 kts 266°
2026-05-05 12:55 36.07348 -114.89644 5343 ft 175 kts 266°
2026-05-05 12:56 36.07353 -114.91130 5125 ft 172 kts 265°
2026-05-05 12:56 36.07347 -114.92607 4855 ft 172 kts 266°
2026-05-05 12:56 36.07347 -114.94071 4664 ft 169 kts 267°
2026-05-05 12:56 36.07365 -114.95514 4486 ft 166 kts 267°
2026-05-05 12:57 36.07376 -114.96930 4355 ft 163 kts 266°
2026-05-05 12:57 36.07373 -114.98330 4206 ft 162 kts 267°
2026-05-05 12:57 36.07381 -114.99723 4007 ft 162 kts 266°
2026-05-05 12:57 36.07375 -115.01108 3788 ft 161 kts 266°
2026-05-05 12:58 36.07364 -115.02482 3557 ft 158 kts 266°
2026-05-05 12:58 36.07370 -115.03819 3359 ft 153 kts 268°
2026-05-05 12:58 36.07374 -115.05128 3165 ft 151 kts 266°
2026-05-05 12:58 36.07377 -115.06422 2971 ft 150 kts 266°
2026-05-05 12:59 36.07378 -115.07716 2784 ft 151 kts 266°
2026-05-05 12:59 36.07369 -115.09013 2619 ft 151 kts 267°
2026-05-05 12:59 36.07372 -115.10314 2423 ft 151 kts 267°
2026-05-05 13:00 36.07367 -115.12883 2086 ft 148 kts 266°
2026-05-05 13:00 36.07364 -115.14032 2082 ft 111 kts 270°
2026-05-05 13:01 36.07384 -115.15267 2103 ft 28 kts 283°
2026-05-05 13:01 36.07443 -115.15447 2105 ft 17 kts 299°
2026-05-05 13:01 36.07496 -115.15491 2104 ft 10 kts 45°
2026-05-05 13:01 36.07503 -115.15391 2103 ft 16 kts 91°
2026-05-05 13:02 36.07503 -115.15220 2101 ft 22 kts 90°
2026-05-05 13:02 36.07503 -115.15028 2099 ft 22 kts 90°
2026-05-05 13:02 36.07503 -115.14840 2098 ft 22 kts 89°
2026-05-05 13:02 36.07503 -115.14658 2096 ft 21 kts 90°
2026-05-05 13:03 36.07502 -115.14481 2095 ft 20 kts 90°
2026-05-05 13:03 36.07503 -115.14309 2094 ft 20 kts 90°
2026-05-05 13:03 36.07503 -115.14142 2092 ft 19 kts 89°
2026-05-05 13:03 36.07503 -115.13981 2090 ft 18 kts 89°
2026-05-05 13:04 36.07504 -115.13818 2088 ft 21 kts 89°
2026-05-05 13:04 36.07504 -115.13627 2085 ft 24 kts 90°
2026-05-05 13:04 36.07505 -115.13458 2082 ft 13 kts 89°
2026-05-05 13:04 36.07556 -115.13385 2084 ft 13 kts
2026-05-05 13:05 36.07644 -115.13385 2087 ft 12 kts 359°
2026-05-05 13:05 36.07719 -115.13383 2089 ft 9 kts
2026-05-05 13:05 36.07747 -115.13378 2089 ft 3 kts
2026-05-05 13:05 36.07798 -115.13374 2088 ft 11 kts
2026-05-05 13:06 36.07879 -115.13375 2088 ft 8 kts 358°
2026-05-05 13:06 36.07925 -115.13388 2089 ft 7 kts 328°
2026-05-05 13:06 36.07962 -115.13437 2089 ft 9 kts 312°
2026-05-05 13:06 36.07997 -115.13481 2090 ft 4 kts 315°
2026-05-05 13:07 36.08003 -115.13489 2090 ft 0 kts 316°